Wind_Speed
11 10 8 7 7 7 6 5 4 3 3 3 4 5 5 5 6 6 6 6 6 6 7 7 7 7 7 7 7 7 6 6 6 6 7 7 6 6 5 5 4 4 4 5
12 11 9 9 9 8 7 6 5 4 4 4 4 4 4 5 5 6 5 5 5 5 5 6 6 6 6 7 6 6 6 5 5 6 6 6 6 5 5 4 4 5 5 4
12 12 12 11 11 9 9 8 7 6 7 7 6 5 5 6 5 5 5 5 4 5 5 6 6 6 6 6 6 6 5 5 5 5 6 6 6 6 6 6 6 5 5 4
14 13 14 13 12 11 10 9 9 8 8 7 7 6 6 6 6 5 5 5 4 5 6 6 6 6 6 6 6 5 5 5 5 5 5 6 6 6 6 6 6 6 6 5
14 14 14 14 13 12 11 10 9 8 8 8 7 7 5 6 6 5 4 4 5 5 6 6 6 6 6 6 6 6 6 6 6 6 6 6 7 7 7 7 7 7 7 6
15 14 14 13 13 13 12 11 9 8 8 8 8 8 6 6 6 6 4 4 5 5 6 6 7 6 6 6 7 7 7 7 7 7 7 7 8 9 9 8 8 9 8 8
16 15 14 13 13 13 13 12 11 10 8 8 9 9 7 7 7 6 6 6 5 5 6 7 8 8 7 7 8 7 7 8 8 8 8 8 9 10 9 9 9 9 9 9
17 16 15 15 14 13 13 13 13 12 11 10 10 9 7 8 8 7 8 7 8 7 8 8 9 9 8 8 8 8 8 9 9 10 10 10 10 10 10 11 11 11 11 11
19 17 17 16 15 15 14 14 14 15 14 13 12 10 9 9 8 9 10 9 9 9 9 9 10 10 10 9 9 9 9 10 10 11 11 11 11 11 11 12 12 12 13 13
19 18 17 17 18 17 16 16 16 16 16 15 13 12 11 11 11 11 11 11 10 10 10 10 11 11 11 11 11 11 11 11 12 12 12 12 13 13 12 13 13 13 13 14
20 19 18 18 18 18 17 17 17 16 17 17 16 14 13 13 12 12 13 12 12 12 11 12 13 13 13 12 12 12 12 13 13 13 13 14 15 15 14 14 14 14 15 15
20 21 20 19 19 18 18 19 19 19 18 18 17 15 14 15 13 13 14 14 14 14 13 13 14 15 14 14 13 13 13 14 15 15 15 16 16 16 17 16 16 16 17 17
20 21 21 21 21 20 20 20 20 20 20 20 18 16 15 16 15 15 15 15 15 15 15 15 16 16 16 15 15 14 15 15 17 17 17 16 17 17 18 17 17 18 18 19
21 22 22 21 21 21 21 21 22 22 22 21 20 19 18 17 17 17 17 17 17 16 17 17 17 17 17 16 16 17 16 16 17 18 18 18 18 18 18 18 18 18 19 20
23 23 23 22 22 23 23 23 23 24 24 24 23 22 20 19 19 19 19 18 19 19 19 19 19 18 17 17 17 17 18 18 18 18 19 19 19 19 19 19 19 20 20 21
24 25 25 25 25 26 25 25 25 25 26 26 24 23 22 22 21 21 21 20 20 20 20 20 21 21 20 19 18 18 19 19 19 19 20 20 21 21 22 21 22 22 22 22
26 26 26 26 26 27 28 25 25 25 25 24 24 23 23 23 23 22 22 21 20 20 21 22 22 22 21 20 20 20 20 20 20 21 21 22 22 23 23 23 23 23 24 24
28 28 28 29 29 30 27 26 25 25 25 25 24 24 24 25 24 23 23 23 22 23 22 22 22 22 22 22 22 23 22 21 21 22 22 23 23 24 25 25 25 25 26 26
30 30 30 31 31 30 29 27 27 26 26 26 26 25 26 26 26 25 25 24 24 24 24 24 23 23 24 24 24 25 24 23 23 24 24 25 25 25 26 26 25 26 27 27
31 31 32 32 32 32 29 29 28 28 29 27 27 27 27 27 27 26 26 25 25 25 25 26 26 25 26 26 26 26 26 25 25 25 26 26 27 27 27 27 27 28 28 28
32 32 32 32 32 32 30 29 29 30 29 28 28 28 28 28 27 26 26 26 26 26 27 27 27 26 27 27 27 28 27 27 28 27 27 28 28 28 28 28 28 29 29 30
32 32 33 32 32 31 29 29 30 30 29 29 29 29 29 29 28 28 28 28 27 28 28 28 28 28 29 29 29 29 29 28 28 28 28 29 29 28 28 28 29 30 30 30
33 33 33 33 32 31 30 30 30 30 30 30 30 30 30 29 29 29 29 29 29 29 29 29 30 30 31 31 31 30 30 29 30 30 29 29 29 29 29 30 30 30 30 31
33 33 33 32 32 32 31 31 31 31 31 31 31 31 31 31 30 31 31 30 30 30 30 30 30 31 31 32 32 31 31 31 31 30 29 28 29 30 30 31 31 31 31 32
32 32 32 32 32 32 32 32 32 32 32 32 32 33 33 33 32 32 32 32 31 31 31 31 31 31 31 32 31 31 31 31 32 31 31 30 30 31 32 32 31 31 32 32
32 32 32 32 32 33 32 32 32 32 32 32 32 33 33 34 33 33 33 32 32 31 31 32 32 31 31 31 31 31 32 32 32 31 31 30 31 31 31 31 31 32 32 32
Wind_Direction
222 223 224 229 235 241 256 271 281 293 303 332 356 3 5 6 3 5 9 20 22 22 22 18 16 17 19 21 23 24 25 21 15 14 13 12 14 16 19 20 20 12 1 352
222 222 227 235 235 243 253 259 266 272 271 296 312 330 336 348 345 345 349 359 11 11 13 11 7 6 7 10 9 10 9 10 2 358 360 0 358 358 358 354 350 349 344 339
226 224 227 229 232 247 254 256 260 262 265 283 289 296 305 314 321 329 334 339 350 349 343 345 349 354 355 355 355 358 358 359 355 352 348 345 345 344 340 337 336 336 335 333
228 225 226 229 233 241 247 254 258 260 262 272 285 288 293 300 307 314 323 332 339 339 341 337 333 340 342 343 345 348 348 342 339 338 337 335 331 330 327 325 328 325 324 324
229 230 230 230 232 238 239 247 257 261 269 276 281 283 284 293 296 303 320 327 330 332 341 341 332 330 331 337 339 340 335 333 331 329 326 320 316 313 313 311 311 312 312 309
228 231 234 235 234 236 236 243 253 263 268 275 282 284 286 289 295 293 308 314 322 329 333 332 324 324 323 327 329 328 330 328 323 321 321 317 310 307 304 299 302 305 303 302
228 228 231 234 233 237 242 244 253 264 271 281 283 285 287 287 292 288 297 304 309 317 325 323 322 319 316 314 317 317 320 321 319 317 316 313 309 306 303 298 297 297 296 299
227 223 227 232 235 240 244 244 252 263 270 278 282 285 287 287 290 287 293 301 307 305 310 315 316 313 309 309 309 311 312 311 308 309 308 306 306 303 300 298 296 295 293 294
230 223 227 234 239 242 245 245 250 257 264 271 274 279 282 278 283 287 291 297 302 301 305 312 313 309 306 305 307 307 304 301 302 305 307 306 306 306 301 297 296 295 295 295
232 226 227 234 240 244 246 248 250 256 265 273 276 279 284 281 284 286 289 294 297 301 305 307 308 306 299 297 298 301 302 300 300 302 304 304 305 303 298 295 293 294 294 293
231 230 229 234 237 241 244 247 252 260 265 271 276 280 283 284 286 287 289 293 295 297 302 307 308 308 301 296 296 299 303 304 302 300 301 301 301 299 297 293 292 294 295 295
232 235 234 236 239 242 247 251 255 260 264 267 273 279 281 281 283 285 289 294 297 300 299 303 305 306 305 305 303 300 298 298 298 299 301 300 299 299 297 294 295 295 295 296
236 240 240 238 241 245 251 254 257 260 264 266 271 277 278 279 282 283 287 293 297 298 303 303 303 304 305 303 305 305 302 298 298 299 301 302 301 299 297 293 294 294 294 294
241 243 245 246 248 251 253 256 258 260 262 264 268 273 274 277 280 281 284 290 295 297 300 302 301 302 302 298 300 303 301 299 298 298 300 300 300 300 298 295 295 294 293 293
242 246 247 247 248 252 254 256 259 261 263 264 268 270 272 275 277 280 282 286 290 294 298 299 300 299 298 295 296 298 298 298 298 299 299 299 298 298 298 297 298 296 295 294
247 250 249 251 252 255 257 256 259 262 262 262 265 266 269 273 275 278 281 284 288 291 293 296 296 296 296 294 294 295 296 297 296 296 298 299 297 295 295 294 296 295 295 294
248 252 253 255 257 258 258 258 260 259 260 261 264 266 270 272 273 276 279 282 285 289 292 293 293 292 293 294 293 291 294 294 293 293 294 296 297 295 293 294 294 294 295 294
247 250 253 255 257 258 260 261 261 260 260 260 263 265 268 271 272 275 278 282 284 286 289 291 292 293 291 289 289 290 290 292 292 292 292 293 295 296 296 294 293 293 294 293
246 250 253 255 256 259 260 261 261 261 261 262 263 265 267 269 272 274 277 281 284 284 285 287 289 289 289 288 289 290 292 292 292 291 291 292 293 294 295 294 295 293 293 293
247 249 253 256 258 260 262 263 263 263 263 263 264 265 268 271 272 275 278 280 282 283 285 286 285 287 287 288 287 288 292 292 292 292 291 290 291 292 293 292 294 294 293 292
247 249 253 256 258 260 263 264 264 264 266 266 266 268 270 271 272 274 276 279 281 282 284 285 284 285 286 288 287 289 291 291 291 291 291 291 290 290 291 293 294 295 295 293
249 250 253 256 257 259 261 263 264 266 265 266 267 269 270 270 271 272 275 277 279 280 282 283 284 285 285 286 286 287 288 287 287 287 288 289 290 290 292 293 294 295 295 295
250 251 253 256 257 258 259 261 263 263 264 265 266 268 269 269 271 272 274 275 278 280 280 280 281 283 284 286 286 286 286 285 285 286 285 287 288 291 293 294 294 295 296 296
251 252 254 255 256 257 259 261 262 263 264 265 266 267 268 269 271 272 274 277 279 279 278 279 280 281 283 283 285 284 284 285 285 286 286 287 289 291 292 294 294 295 296 296
251 252 253 254 256 258 259 260 261 263 265 265 266 267 268 269 270 272 274 277 277 277 277 279 280 281 282 283 283 283 285 287 289 288 287 286 288 291 291 293 296 298 298 298
252 253 254 255 256 258 259 260 261 263 264 266 266 267 269 271 271 272 274 275 276 277 278 279 282 282 282 282 282 283 284 286 289 290 289 288 290 291 293 295 297 298 298 298
Height
5894 5896 5896 5898 5898 5899 5899 5899 5899 5900 5899 5899 5899 5899 5898 5897 5897 5896 5895 5893 5892 5891 5890 5889 5888 5887 5886 5885 5883 5882 5881 5880 5880 5879 5878 5877 5876 5875 5874 5873 5872 5871 5871 5870
5893 5894 5896 5896 5897 5897 5897 5898 5898 5899 5899 5898 5898 5898 5898 5897 5896 5895 5894 5893 5892 5892 5891 5889 5888 5887 5886 5885 5884 5883 5881 5880 5880 5879 5878 5877 5876 5875 5874 5873 5872 5871 5871 5870
5890 5893 5893 5894 5895 5895 5896 5896 5897 5897 5898 5897 5898 5898 5897 5897 5896 5895 5894 5893 5892 5891 5891 5889 5888 5887 5886 5885 5884 5883 5881 5880 5879 5879 5878 5877 5876 5875 5874 5873 5872 5871 5870 5869
5888 5890 5892 5892 5893 5894 5894 5895 5896 5896 5896 5896 5897 5897 5896 5895 5895 5894 5893 5892 5892 5891 5890 5889 5888 5887 5886 5884 5883 5882 5881 5880 5879 5878 5877 5876 5875 5874 5873 5872 5871 5870 5869 5868
5886 5888 5889 5890 5892 5892 5893 5893 5894 5894 5894 5895 5895 5895 5896 5895 5894 5893 5893 5892 5891 5890 5889 5888 5887 5886 5885 5884 5883 5881 5880 5879 5878 5877 5876 5875 5874 5873 5872 5871 5870 5869 5868 5867
5884 5885 5887 5888 5890 5891 5891 5892 5892 5892 5893 5894 5894 5894 5894 5894 5893 5892 5892 5891 5890 5889 5888 5887 5886 5885 5884 5883 5882 5880 5879 5878 5877 5876 5875 5874 5873 5872 5870 5869 5868 5867 5866 5865
5881 5883 5885 5886 5887 5889 5889 5891 5891 5891 5891 5892 5892 5892 5893 5892 5892 5891 5890 5890 5889 5888 5887 5886 5885 5884 5883 5882 5881 5879 5878 5877 5876 5875 5874 5872 5871 5870 5868 5867 5866 5865 5864 5863
5878 5881 5883 5884 5885 5886 5887 5888 5889 5890 5889 5890 5890 5890 5892 5891 5890 5890 5889 5888 5888 5887 5886 5885 5884 5883 5881 5880 5879 5878 5876 5875 5874 5873 5872 5870 5869 5867 5866 5865 5864 5863 5862 5861
5875 5878 5880 5881 5882 5883 5884 5885 5887 5887 5887 5888 5888 5889 5890 5889 5889 5888 5888 5887 5886 5885 5884 5883 5882 5881 5879 5878 5877 5876 5874 5873 5872 5871 5869 5868 5867 5865 5864 5863 5861 5860 5859 5858
5872 5875 5877 5878 5879 5880 5882 5883 5883 5884 5884 5884 5885 5886 5887 5887 5887 5886 5886 5885 5884 5884 5882 5881 5880 5879 5877 5876 5875 5873 5872 5870 5869 5868 5866 5865 5864 5862 5861 5859 5858 5856 5855 5854
5868 5871 5873 5875 5875 5877 5878 5880 5880 5881 5882 5882 5882 5885 5884 5884 5884 5884 5883 5883 5882 5881 5880 5879 5877 5876 5875 5873 5872 5870 5869 5867 5866 5864 5863 5862 5860 5859 5857 5855 5854 5853 5852 5850
5863 5866 5868 5871 5872 5873 5874 5876 5877 5878 5879 5879 5879 5883 5881 5881 5881 5881 5880 5880 5879 5878 5877 5876 5874 5873 5871 5870 5868 5867 5865 5863 5862 5861 5859 5857 5856 5855 5853 5852 5850 5849 5847 5846
5859 5862 5864 5866 5869 5870 5870 5872 5873 5874 5875 5875 5876 5880 5878 5878 5878 5877 5877 5876 5876 5874 5873 5872 5871 5869 5868 5867 5865 5863 5861 5860 5858 5857 5855 5854 5852 5851 5849 5847 5846 5844 5843 5841
5855 5857 5860 5863 5864 5865 5866 5867 5868 5869 5870 5870 5872 5873 5874 5874 5874 5874 5873 5872 5871 5870 5869 5868 5867 5865 5864 5862 5861 5859 5858 5856 5854 5853 5851 5850 5848 5846 5844 5843 5841 5839 5838 5836
5850 5852 5854 5856 5858 5860 5861 5862 5863 5864 5865 5866 5867 5868 5869 5869 5869 5869 5869 5868 5867 5866 5865 5864 5862 5860 5859 5858 5856 5855 5853 5851 5850 5848 5847 5845 5843 5841 5840 5838 5836 5834 5832 5830
5844 5846 5848 5850 5852 5854 5855 5857 5858 5858 5859 5859 5861 5863 5863 5863 5864 5864 5864 5863 5862 5861 5860 5859 5857 5856 5855 5853 5852 5850 5848 5846 5845 5843 5842 5840 5838 5836 5834 5833 5831 5829 5827 5825
5838 5840 5842 5844 5846 5847 5849 5851 5852 5852 5853 5854 5855 5857 5858 5858 5858 5858 5858 5858 5857 5856 5855 5854 5852 5851 5849 5848 5846 5845 5843 5841 5839 5837 5835 5834 5832 5830 5828 5827 5825 5823 5821 5819
5832 5834 5835 5837 5839 5840 5845 5844 5845 5846 5847 5848 5849 5850 5851 5852 5852 5852 5852 5852 5851 5851 5849 5848 5846 5845 5843 5842 5840 5838 5837 5834 5833 5831 5829 5827 5826 5824 5822 5820 5818 5816 5814 5812
5825 5827 5829 5830 5831 5833 5836 5837 5838 5839 5841 5842 5843 5844 5845 5845 5845 5846 5846 5845 5845 5844 5843 5842 5840 5839 5837 5835 5833 5831 5829 5828 5826 5825 5823 5821 5819 5817 5815 5813 5811 5809 5807 5805
5818 5820 5822 5823 5825 5826 5830 5831 5831 5833 5833 5835 5836 5837 5837 5838 5839 5840 5839 5838 5838 5837 5836 5835 5833 5832 5830 5829 5827 5824 5822 5820 5819 5818 5816 5814 5812 5810 5808 5806 5804 5801 5799 5797
5811 5812 5814 5815 5817 5819 5822 5823 5824 5826 5828 5828 5828 5829 5830 5830 5832 5832 5831 5831 5830 5830 5829 5827 5826 5825 5823 5821 5820 5818 5816 5814 5812 5810 5808 5806 5804 5802 5800 5798 5795 5793 5791 5788
5803 5805 5807 5808 5810 5813 5814 5815 5817 5818 5819 5819 5820 5821 5822 5823 5823 5823 5823 5823 5823 5822 5821 5820 5818 5817 5815 5814 5812 5810 5808 5806 5804 5802 5800 5798 5796 5794 5792 5789 5787 5785 5783 5780
5795 5797 5799 5801 5804 5805 5806 5807 5808 5809 5810 5811 5812 5813 5814 5814 5815 5815 5815 5815 5815 5814 5813 5812 5810 5809 5807 5806 5804 5802 5800 5798 5796 5794 5792 5790 5788 5786 5784 5781 5779 5777 5774 5771
5786 5788 5791 5793 5794 5796 5798 5799 5800 5801 5802 5803 5804 5805 5805 5806 5806 5806 5807 5806 5806 5805 5804 5803 5802 5800 5799 5797 5795 5794 5792 5789 5787 5785 5783 5781 5779 5778 5776 5773 5771 5768 5765 5763
5778 5780 5782 5784 5786 5788 5789 5791 5792 5793 5794 5795 5795 5796 5796 5796 5797 5797 5797 5797 5796 5795 5795 5794 5793 5791 5790 5788 5786 5785 5783 5781 5779 5776 5775 5773 5771 5769 5767 5764 5762 5759 5756 5754
5770 5772 5774 5776 5778 5779 5781 5782 5783 5784 5785 5786 5786 5787 5787 5787 5788 5788 5788 5788 5787 5786 5785 5785 5784 5782 5780 5778 5777 5776 5774 5772 5770 5768 5766 5764 5762 5760 5758 5756 5753 5750 5748 5745